Theta_e
300 300 299 298 297 295 295 294 294 294 295 295 296 296 296 296 294 294 295 294 294 294 294 293 291 290 290 290 291 291 291 291 291 291 291 291 291 291 290 291 290 290 289 288 288 288 287 286 285 284 284 284 284 284 284 284 283 283 284 284 282 281 281 281 282 280 280 280 280 281 282 283 286 283 282 282 283 283 283 283 283 284 283 284 283
298 298 299 295 295 294 293 293 292 292 294 294 295 296 296 295 294 295 294 294 294 294 294 294 293 293 292 291 292 291 291 290 290 291 291 291 290 290 290 290 289 289 289 288 288 288 286 286 285 285 284 284 284 283 283 285 284 283 284 281 281 280 280 281 281 280 280 278 279 280 280 281 284 281 282 282 282 283 283 283 283 283 283 283 283
297 297 297 297 294 293 292 292 292 294 295 294 295 295 295 295 295 294 294 294 294 294 294 294 294 293 293 291 292 290 290 291 290 290 290 290 289 289 289 289 289 288 288 288 288 287 287 286 285 285 284 284 284 283 283 283 283 283 283 283 281 281 281 282 280 278 279 278 279 278 278 278 283 280 280 281 282 282 282 283 283 282 282 282 283
296 297 297 298 293 291 291 290 291 292 292 292 293 294 295 295 294 294 294 294 294 294 294 294 293 291 290 290 290 289 289 289 288 288 288 288 287 288 289 289 289 288 288 288 288 287 287 286 286 285 284 284 284 283 283 283 283 283 282 282 283 281 279 281 282 280 279 280 279 278 276 278 279 279 277 279 280 280 282 282 282 282 281 282 282
296 296 297 297 294 291 291 291 290 291 292 293 293 294 295 295 295 294 294 293 294 294 294 293 291 289 288 288 288 287 287 287 286 285 288 288 288 286 288 288 288 288 288 288 288 287 287 286 285 285 284 284 284 283 283 284 283 283 283 282 282 282 280 279 281 281 280 281 280 277 276 279 278 277 277 277 278 281 280 280 282 280 281 281 281
294 295 296 296 294 291 288 289 289 291 292 294 294 295 295 295 294 293 293 293 293 293 293 292 292 290 289 288 287 288 286 286 287 288 286 287 288 288 288 289 289 289 288 288 288 287 286 286 286 285 284 284 284 284 284 283 282 282 283 283 281 280 281 280 279 281 281 281 279 277 278 278 277 276 276 278 278 279 279 280 279 279 279 280 281
293 293 294 294 292 292 289 288 290 291 293 294 293 293 293 293 293 293 293 292 293 293 293 292 291 291 290 290 290 290 289 289 290 290 289 290 290 288 288 288 288 288 287 287 287 287 287 286 285 285 284 284 284 283 283 283 283 283 283 281 281 282 281 279 280 279 279 279 279 279 281 279 278 277 275 277 276 277 277 278 279 278 279 279 280
294 295 294 293 290 291 292 292 291 293 292 291 292 291 291 291 291 292 292 292 292 292 292 293 292 291 290 290 291 290 290 290 289 290 290 290 289 288 287 287 287 288 287 287 287 287 286 285 285 285 284 284 284 283 283 283 282 282 283 282 281 282 281 282 279 280 280 280 280 279 280 279 277 277 277 276 275 275 277 277 277 278 279 279 280
293 293 293 292 290 289 289 291 291 290 290 290 291 290 290 290 290 291 291 291 291 292 292 292 292 291 291 291 290 291 290 289 288 289 288 288 288 286 286 286 286 287 287 287 286 286 286 285 284 284 284 283 284 283 282 282 282 282 282 281 281 281 280 281 280 279 279 279 278 277 278 277 277 277 278 277 276 275 275 275 276 277 277 278 278
293 291 290 289 289 289 289 288 288 289 288 288 289 288 288 288 289 289 290 290 291 291 292 291 291 291 290 290 290 290 289 286 287 287 287 286 287 286 286 285 286 286 286 286 286 286 286 285 284 284 284 283 284 283 282 281 282 282 282 282 281 280 280 281 281 280 280 280 280 279 277 276 277 277 276 276 276 276 276 275 275 275 275 276 278
293 293 291 290 288 287 286 287 287 285 286 287 287 287 287 288 288 289 289 290 290 290 291 291 291 291 291 291 290 289 288 286 286 285 285 285 286 285 286 286 286 286 285 285 285 285 285 285 284 284 284 284 284 282 282 282 282 282 282 281 281 281 280 280 281 279 279 280 279 279 279 279 278 276 276 276 276 275 275 275 275 276 275 275 276
291 291 293 292 292 288 285 287 286 285 285 286 286 286 287 287 288 288 288 289 289 290 290 290 291 291 291 290 290 290 288 287 287 286 286 286 287 286 286 285 285 285 285 284 284 284 285 284 284 283 283 283 283 283 282 282 282 281 281 281 281 280 279 280 279 279 279 279 279 279 279 279 278 277 278 278 277 276 276 275 275 275 275 276 277
291 289 288 290 291 290 289 287 285 284 285 285 286 286 285 286 287 288 287 288 288 289 290 290 290 290 290 290 290 290 289 288 288 287 287 287 287 286 285 285 285 284 284 284 284 284 284 284 283 283 283 283 283 282 282 281 281 281 281 281 280 280 280 280 279 279 279 279 279 278 278 278 277 278 279 278 277 277 277 274 275 275 274 275 276
289 289 288 287 288 290 287 285 284 284 285 285 285 285 285 286 286 287 287 287 288 289 289 289 290 290 290 290 290 290 289 288 288 288 287 287 287 287 286 286 285 285 285 285 285 284 285 285 284 284 283 283 283 282 282 281 281 281 281 280 280 280 280 280 279 279 279 279 279 278 278 278 277 278 278 278 277 277 275 275 275 275 275 274 276
287 287 287 288 289 288 287 285 284 283 285 284 284 285 285 285 285 286 286 286 287 288 289 289 289 289 290 290 290 290 290 289 289 289 288 287 287 287 287 287 286 286 286 286 286 284 284 284 284 283 283 282 283 282 282 281 281 281 280 280 280 279 279 279 279 279 279 278 278 278 278 278 277 278 278 278 278 278 277 276 275 274 273 274 274
287 287 290 288 286 286 286 285 283 283 283 283 284 285 285 285 285 285 286 286 287 287 288 289 289 289 289 289 289 289 289 289 288 288 288 288 287 287 287 287 287 287 286 286 285 284 284 284 283 283 283 282 282 282 281 281 280 280 280 280 279 280 279 279 278 279 279 278 278 278 278 277 278 278 278 278 277 277 277 277 276 275 274 273 274
287 289 288 288 287 286 285 284 283 283 282 283 284 284 285 286 286 286 286 286 286 287 288 288 288 288 288 289 289 288 288 288 288 287 287 287 287 287 287 287 287 286 286 285 285 284 284 283 283 283 282 282 282 282 281 281 280 280 280 279 279 279 279 279 278 278 278 278 278 278 278 278 277 277 278 278 277 277 277 277 277 276 275 274 272
285 285 285 286 286 285 284 283 283 283 283 282 284 284 285 285 284 285 285 285 286 287 287 287 287 287 288 288 288 289 288 288 288 287 287 286 286 286 286 285 285 285 285 285 285 284 283 283 283 282 282 281 281 281 281 281 280 280 280 280 279 279 278 278 278 278 278 278 278 278 278 277 277 277 277 277 277 277 277 277 277 277 276 275 274
290 288 288 288 287 287 287 285 284 283 283 282 283 283 284 283 283 284 285 285 285 286 286 287 287 288 288 287 287 288 288 288 287 287 286 285 285 285 285 285 285 284 284 284 284 283 283 283 283 282 281 281 281 281 281 280 280 280 279 279 278 278 278 278 277 278 278 278 277 277 277 277 277 277 277 277 277 277 277 277 276 277 277 276 275
289 289 288 288 288 287 287 286 285 284 283 283 283 283 283 283 283 283 284 283 283 284 284 285 286 286 287 286 286 287 287 287 287 286 286 286 285 285 285 284 285 284 284 284 284 283 283 283 282 282 281 281 280 280 280 280 280 280 279 279 278 278 278 277 277 278 278 278 277 277 277 277 277 277 277 277 277 277 277 277 276 276 276 276 276
288 288 288 288 288 288 288 287 286 285 284 283 283 283 283 283 283 283 283 283 284 284 284 285 285 285 285 286 286 286 286 286 285 285 285 285 285 285 285 285 283 284 284 283 283 283 283 283 282 282 281 280 280 280 280 280 279 279 279 279 278 278 278 277 277 277 277 277 277 277 277 277 277 276 276 276 276 276 276 276 276 276 276 276 275
287 288 288 288 288 289 289 290 290 289 289 287 286 284 284 284 283 283 283 283 284 284 284 284 284 285 285 286 286 285 285 285 285 285 285 285 285 285 284 283 283 283 283 283 283 283 283 283 282 281 281 280 280 280 280 280 279 279 278 278 278 277 277 276 277 276 276 277 277 276 276 276 276 276 276 275 275 275 275 275 275 275 275 274 276
286 287 287 287 287 288 288 288 288 288 289 289 289 288 287 286 285 284 283 284 283 284 283 284 284 284 284 284 284 285 284 284 284 285 285 285 285 284 284 284 283 283 283 283 283 283 283 282 282 281 281 280 280 280 280 279 279 279 278 278 278 277 277 277 276 276 276 277 276 276 275 275 275 274 274 275 275 274 274 274 273 274 273 273 274
285 286 286 287 287 287 288 288 288 288 288 288 288 288 288 288 287 285 284 284 283 284 284 284 284 284 284 284 284 285 284 284 284 285 285 285 286 285 284 284 283 283 282 283 283 282 282 282 281 281 281 280 280 280 279 279 279 279 278 278 277 277 277 277 277 277 276 276 276 276 275 274 274 274 273 273 273 273 273 273 272 272 272 272 272
284 285 285 285 286 286 287 287 287 287 287 287 288 288 288 288 287 287 286 285 284 284 283 283 283 284 284 284 284 284 284 284 285 285 285 286 286 285 285 284 283 282 282 282 282 282 282 281 281 281 281 280 280 280 279 279 279 279 278 278 277 277 277 277 277 277 278 276 276 276 275 274 274 273 272 272 272 271 271 271 271 271 271 271 271
284 284 284 284 285 286 286 286 287 287 287 287 287 287 287 287 287 287 286 286 286 285 284 283 283 283 284 284 284 284 284 284 285 285 286 286 285 285 284 283 283 283 282 282 282 282 282 281 281 281 281 281 280 280 279 279 279 278 278 278 277 277 277 277 277 277 277 276 276 276 275 274 274 273 272 272 271 271 270 270 269 270 270 270 270
283 283 283 284 284 284 285 286 286 286 286 287 286 286 286 286 286 286 287 287 286 285 285 284 284 284 284 284 284 284 284 284 285 285 286 285 285 284 283 283 283 283 282 282 282 282 282 282 282 282 281 281 280 280 279 279 279 278 278 277 277 277 277 277 277 276 276 276 276 276 274 274 273 274 272 271 271 270 270 269 269 269 270 270 270
282 282 282 282 283 284 284 285 285 286 286 286 286 286 286 286 285 285 286 286 287 287 286 284 284 284 284 284 284 285 285 285 285 285 285 284 284 284 284 283 283 283 282 282 282 282 282 282 282 282 281 281 280 280 279 279 278 278 278 277 277 277 277 276 276 276 276 275 275 275 274 274 274 273 272 271 271 270 270 269 269 269 269 269 268
281 281 282 282 282 283 284 284 285 285 285 285 286 286 286 286 286 285 285 285 286 286 286 286 285 284 285 285 285 285 285 285 285 285 284 284 284 284 284 283 283 283 283 282 282 282 282 282 282 282 281 281 280 280 279 279 278 278 278 277 277 277 276 276 275 275 275 275 275 274 274 273 274 275 276 274 273 273 270 268 268 269 269 268 268
280 281 281 281 281 282 283 284 284 284 285 285 285 285 285 285 285 285 285 286 286 286 286 286 286 286 286 285 285 285 285 284 284 284 284 284 284 284 283 282 282 282 282 282 281 281 282 281 281 281 281 280 280 280 281 283 282 278 278 277 277 277 276 276 275 274 274 274 274 274 274 276 276 276 277 277 277 276 275 271 269 268 268 268 267
280 281 281 281 282 282 283 283 283 284 284 284 284 284 285 285 285 285 285 286 286 286 285 285 285 286 286 286 285 285 285 284 284 284 284 284 284 284 283 282 282 281 281 281 281 281 281 281 281 281 280 280 280 280 283 284 284 284 279 277 277 276 276 276 275 274 273 273 273 272 273 275 276 277 276 278 278 278 277 275 275 274 272 270 269
280 281 281 281 281 282 283 283 283 284 284 284 284 284 284 284 284 284 285 286 286 285 285 285 285 286 286 285 285 284 284 284 283 283 283 283 283 282 282 282 281 280 280 280 280 281 281 281 281 281 280 280 280 282 284 285 285 285 282 278 277 277 276 276 275 275 274 273 271 271 272 274 274 274 274 275 277 278 278 277 277 276 276 277 276
281 281 281 281 281 282 283 283 284 284 284 284 284 284 284 284 283 284 285 285 285 284 284 284 285 285 285 285 284 284 283 283 283 283 282 281 281 281 281 280 280 280 280 280 280 281 280 281 281 280 280 280 280 283 284 285 286 286 284 281 277 277 276 275 275 274 274 272 271 270 271 272 273 276 275 274 274 275 278 278 277 278 278 279 279
282 281 282 282 283 283 284 283 283 284 284 284 284 284 284 284 284 285 285 284 284 283 283 284 284 284 284 284 283 283 282 283 282 281 281 280 280 281 281 281 281 280 280 280 280 280 280 280 280 280 280 279 279 282 285 285 286 286 285 282 277 276 276 275 274 274 272 271 271 270 271 271 272 274 273 273 274 274 275 276 276 276 277 278 280
281 281 282 282 282 283 282 282 283 283 283 283 283 283 283 283 284 284 284 284 283 283 283 283 283 283 283 283 283 282 281 281 281 280 279 280 280 281 281 281 280 280 280 280 280 279 280 280 280 280 279 279 279 283 285 286 286 286 286 283 277 276 275 274 273 273 272 271 271 271 271 271 271 272 273 273 273 274 275 274 274 274 274 274 275
282 281 281 281 282 282 281 281 283 282 281 282 281 282 281 282 283 283 283 283 283 283 283 283 282 282 282 282 282 281 281 280 280 278 277 279 279 279 280 280 279 279 280 280 280 280 280 279 279 279 279 278 279 283 284 285 286 286 286 280 276 275 274 274 273 272 272 272 272 272 271 271 271 272 275 277 276 273 271 270 270 269 269 269 270
282 282 281 282 282 282 281 282 281 281 280 280 280 280 280 281 280 281 281 281 282 282 282 283 282 282 282 281 281 280 280 280 279 278 278 278 279 278 279 278 278 279 279 279 279 279 280 279 279 278 278 278 277 281 284 285 286 286 285 277 275 274 273 273 272 272 272 272 272 272 272 271 271 271 276 279 278 276 269 269 268 268 269 270 271
281 281 281 281 281 281 281 281 279 279 279 279 279 279 279 278 278 279 279 279 280 281 282 282 282 282 281 281 280 279 279 279 279 278 278 279 278 278 278 278 279 279 279 279 279 279 279 279 279 278 278 277 276 280 284 285 286 286 284 275 274 273 272 272 272 272 272 272 272 274 274 272 271 272 278 280 279 275 269 269 268 269 269 270 272
280 280 280 280 280 280 280 279 278 278 278 278 277 277 277 276 277 277 278 278 279 279 280 280 281 282 282 281 280 279 279 279 278 279 278 278 279 279 279 279 279 279 279 279 278 278 278 278 278 278 279 278 276 279 284 285 286 286 282 275 274 273 272 271 271 271 272 272 272 275 275 274 273 274 279 281 280 275 270 270 270 270 270 271 272
280 280 280 280 279 278 278 277 277 277 277 276 276 276 276 275 275 276 276 277 277 278 278 278 279 281 282 282 281 280 279 278 278 278 278 278 277 277 277 278 278 278 278 277 277 277 277 277 277 277 277 278 276 277 281 285 286 286 283 275 274 273 271 271 271 271 271 271 272 273 275 277 277 278 280 281 281 278 272 272 272 272 271 271 274
278 278 280 278 278 277 277 276 276 276 275 275 275 274 273 274 274 275 275 276 276 276 276 276 278 282 282 282 281 280 279 279 278 278 278 277 276 276 275 274 275 276 275 275 276 276 276 275 275 275 275 277 276 276 279 284 285 286 284 278 273 273 272 272 271 271 271 271 271 273 274 278 279 279 280 281 281 281 278 275 274 273 273 274 275
276 277 277 276 276 276 275 275 275 275 274 274 273 272 272 272 273 273 274 275 275 274 274 275 278 280 279 279 280 280 280 279 278 277 277 277 274 273 275 274 274 274 274 275 275 274 274 274 273 273 274 275 276 278 277 283 285 286 284 280 274 274 274 272 272 271 272 271 272 273 273 277 280 279 280 280 281 281 280 275 275 277 277 277 275
274 274 274 274 273 273 273 273 273 273 273 273 271 270 271 271 271 272 274 273 273 272 273 274 276 276 276 276 277 278 279 279 278 278 277 277 275 273 273 274 274 274 274 274 273 273 272 272 271 272 272 273 274 276 279 280 284 286 285 281 279 277 278 274 273 271 272 272 272 273 274 278 280 280 280 280 281 281 281 277 278 279 278 278 272
273 273 272 272 271 272 271 271 272 272 271 272 271 270 270 270 270 272 272 271 271 271 272 273 274 274 274 274 274 276 278 278 277 277 277 277 276 274 274 274 274 274 273 273 272 271 271 271 270 270 270 272 273 274 277 280 282 285 285 282 281 279 279 274 274 273 273 272 272 272 274 279 280 280 280 281 281 280 279 279 279 279 278 273 267
272 271 271 270 270 269 270 269 270 270 270 269 269 268 268 268 269 270 269 269 269 270 271 272 271 271 271 271 272 273 274 277 277 277 276 276 276 274 273 273 273 273 273 272 272 271 271 271 270 270 270 271 272 273 274 278 281 283 285 283 282 281 281 279 274 273 274 273 274 276 277 279 280 280 281 281 281 280 280 279 279 277 272 266 264
270 270 270 269 269 268 268 268 268 269 269 269 268 268 267 268 269 268 268 268 268 269 269 268 268 268 269 270 270 271 273 275 277 276 276 276 276 275 274 274 273 273 273 273 272 271 271 271 271 270 270 270 271 272 273 275 278 281 283 284 282 281 281 279 276 274 276 276 277 277 278 278 279 280 279 277 275 276 278 277 276 271 266 263 261
269 270 269 268 268 267 267 267 267 268 268 268 267 267 267 267 267 267 267 267 267 266 266 266 265 266 267 268 268 270 272 274 276 276 275 275 276 275 274 273 273 273 273 273 273 272 271 271 271 271 270 269 269 271 272 273 275 278 280 283 281 280 281 279 275 274 276 275 276 276 276 278 278 279 276 274 274 275 271 269 266 265 263 260 260
269 269 268 267 266 266 266 266 266 267 267 267 266 266 266 265 265 266 265 265 264 264 263 263 263 264 265 267 268 270 271 273 275 276 275 275 275 275 274 273 273 273 273 272 272 272 271 271 271 272 270 268 268 269 271 272 274 276 279 281 280 279 278 275 273 274 274 275 275 277 278 276 274 271 269 268 266 265 264 263 263 262 261 261 262
268 267 267 266 266 265 265 265 265 266 266 265 264 264 264 264 264 264 263 262 262 262 262 261 262 263 264 267 268 270 271 272 274 275 275 275 275 274 274 274 275 275 275 274 273 273 273 273 273 272 269 268 268 269 270 275 275 278 279 280 279 278 277 274 275 276 274 274 274 272 268 267 266 265 264 263 262 261 260 260 260 259 259 260 259
267 267 266 265 265 265 264 264 265 265 264 264 263 263 263 263 263 262 262 261 261 261 260 261 262 263 264 266 268 269 271 273 274 274 274 274 276 278 277 275 274 277 278 279 278 275 274 274 273 273 272 269 269 270 274 277 277 279 281 283 281 280 279 275 277 279 275 271 269 267 267 266 265 264 263 262 262 262 260 258 258 261 259 257 257
266 265 265 264 264 264 264 263 263 263 262 262 262 262 261 261 261 261 261 260 260 259 260 260 261 262 264 265 267 268 270 271 272 273 274 273 273 275 279 280 279 278 278 279 280 280 279 278 274 272 274 276 275 275 276 277 278 279 281 282 282 281 280 279 279 275 271 269 268 267 266 266 265 265 264 263 261 260 259 259 258 259 257 259 260
Wind_Speed
18 12 11 8 8 8 8 7 8 8 9 10 12 13 14 16 13 15 14 12 12 12 12 13 13 11 8 12 14 13 12 11 10 10 11 11 12 12 12 10 10 10 9 10 9 9 8 8 8 7 7 8 8 9 7 6 5 5 6 3 5 4 2 2 0 3 6 3 4 6 6 4 2 3 5 5 4 3 2 5 4 6 6 7 6
10 10 12 7 7 7 6 6 6 7 9 9 13 16 15 13 16 15 11 13 15 16 15 14 14 16 17 18 15 12 12 13 13 12 12 9 9 10 10 9 10 10 10 9 9 10 10 9 9 10 9 8 7 5 5 5 5 6 6 4 1 4 2 0 1 3 4 3 4 2 4 4 2 2 5 5 4 4 3 4 5 7 7 5 5
10 12 11 9 7 6 5 5 6 10 9 13 14 11 11 13 13 11 13 14 14 13 12 14 12 10 10 6 9 6 6 6 5 5 6 7 7 8 8 8 10 9 10 10 10 10 11 10 10 9 9 8 8 8 7 8 8 9 9 8 5 1 2 1 1 2 5 3 3 5 1 1 0 0 1 3 5 3 4 4 4 6 6 5 5
14 14 14 14 5 3 2 4 7 6 6 6 7 11 11 13 12 13 14 14 13 14 14 9 8 5 3 4 4 5 5 4 4 4 5 6 7 8 8 9 10 10 10 10 9 10 11 12 9 9 10 9 10 10 9 10 9 8 7 5 8 5 2 0 1 0 4 8 2 2 2 2 0 1 2 3 2 2 4 3 3 5 6 6 6
15 15 16 15 5 2 5 6 4 6 9 10 10 12 11 16 15 15 14 15 14 14 14 11 9 7 6 6 6 6 5 6 5 5 8 7 7 8 10 9 11 11 12 13 12 12 11 10 11 10 10 10 9 9 10 12 11 10 9 7 8 9 6 2 0 2 1 2 7 5 2 0 3 2 1 1 1 1 2 2 3 3 5 6 5
11 15 16 13 7 4 2 3 5 8 10 11 11 13 11 11 10 11 10 11 13 14 15 13 13 13 12 11 10 9 9 10 14 16 12 13 16 13 12 14 13 13 12 12 12 11 12 12 11 11 10 9 9 9 8 6 8 9 10 9 7 4 8 7 3 0 1 1 0 1 3 4 6 4 3 2 0 0 1 1 1 2 2 5 4
8 10 12 12 5 4 3 4 8 9 13 8 7 8 7 7 9 11 12 11 11 13 15 13 13 13 17 17 16 17 17 14 12 9 12 12 9 11 12 11 12 13 11 11 11 11 11 11 11 11 10 9 8 7 8 10 10 10 7 7 7 7 8 6 10 6 3 2 3 3 4 2 5 7 4 3 1 2 0 1 0 1 3 4 3
10 11 10 6 5 4 6 7 8 12 8 3 6 5 8 8 10 11 9 10 10 11 15 15 15 14 14 14 12 13 14 13 12 12 11 8 9 10 9 10 11 11 12 11 11 11 11 10 10 9 9 9 9 9 10 8 7 4 6 5 4 6 8 10 8 9 9 4 2 4 5 5 4 5 3 6 4 4 2 1 0 3 5 3 1
9 9 10 8 6 5 6 7 7 6 5 5 5 5 5 5 7 7 8 9 9 12 14 14 13 14 15 13 12 10 8 4 4 4 7 7 9 6 7 7 8 9 10 11 11 11 10 11 10 10 10 10 9 8 7 7 9 9 8 7 7 6 5 5 10 9 6 9 7 3 5 5 5 3 2 3 4 4 4 2 4 4 3 3 2
7 6 5 6 6 6 5 5 6 6 4 3 2 3 4 5 6 8 8 7 8 11 12 12 12 11 12 13 14 11 7 6 7 8 8 7 10 9 9 8 8 8 8 9 10 11 11 10 11 12 12 10 9 9 8 7 7 7 9 8 7 7 4 7 9 8 6 7 8 10 6 4 4 2 1 3 2 2 4 3 2 1 2 3 1
9 11 8 7 5 6 5 6 5 3 1 1 4 5 5 6 7 8 8 7 8 11 12 14 12 12 13 14 14 13 10 9 9 9 8 7 10 10 10 10 9 10 9 9 11 11 10 10 11 11 10 9 10 9 10 10 9 8 8 5 6 8 7 6 4 5 6 7 7 9 11 11 10 7 9 6 5 4 3 1 3 1 3 4 2
8 8 13 12 11 6 5 6 5 3 1 1 2 4 5 6 7 9 8 9 9 11 12 13 13 14 13 13 14 13 13 12 14 15 14 15 13 12 10 8 9 8 8 8 9 10 11 10 10 10 10 10 11 10 9 9 8 7 7 7 7 5 4 6 6 8 7 7 7 6 7 6 5 6 8 9 9 6 7 6 6 1 2 5 4
10 6 6 10 10 10 8 6 5 4 3 1 1 2 4 5 8 10 9 9 11 11 13 13 13 13 13 13 13 12 13 14 14 13 13 13 12 12 11 12 9 9 11 12 12 14 12 12 12 12 11 11 11 10 10 9 9 8 8 8 7 8 8 8 9 10 11 11 10 5 5 5 5 3 7 8 4 6 7 6 3 3 4 2 2
9 9 8 5 6 10 6 4 3 1 1 2 1 1 1 2 4 6 6 7 8 11 12 13 14 13 11 12 12 11 12 13 12 13 13 12 12 14 14 14 14 16 15 16 14 14 13 14 13 13 12 11 11 11 10 10 9 9 8 9 9 7 5 7 7 6 6 5 5 7 6 6 5 5 7 8 8 8 6 7 7 4 3 4 2
6 8 7 7 9 8 9 5 4 1 0 0 0 1 1 2 4 5 5 5 6 9 9 13 12 12 11 11 10 9 10 10 11 11 12 13 12 13 12 12 13 13 14 13 12 14 14 11 12 12 12 12 11 11 10 9 9 8 8 8 6 6 6 6 6 8 8 7 6 6 7 5 6 6 7 7 7 8 8 8 9 6 4 4 3
8 7 9 7 6 7 8 7 5 2 1 1 1 2 3 4 4 5 6 7 7 7 9 11 11 11 11 12 13 11 9 8 7 8 9 11 12 14 14 14 13 11 10 10 11 12 13 13 11 12 11 11 11 11 11 10 10 10 8 7 8 5 7 8 6 7 7 7 7 6 6 6 5 6 5 6 6 5 5 6 5 4 4 3 2
8 9 8 8 8 6 5 5 6 0 3 4 4 4 5 5 6 8 8 7 9 10 10 10 9 10 12 12 12 11 11 11 11 9 9 9 9 10 11 12 10 10 10 9 11 12 11 12 12 12 11 11 11 11 11 10 10 9 9 9 9 7 7 8 6 7 6 7 6 8 7 7 6 5 5 5 5 4 5 5 5 6 6 4 0
5 5 5 7 9 11 10 4 1 4 1 3 4 4 5 5 6 7 7 10 10 11 11 11 11 12 11 12 12 13 13 13 11 9 8 8 9 9 8 8 11 8 9 9 10 12 11 12 11 11 11 11 12 11 11 11 11 9 9 9 8 7 7 5 6 6 7 7 7 6 6 7 6 6 6 6 6 6 6 6 5 3 4 6 5
12 13 14 14 14 15 15 14 12 9 8 7 4 2 3 4 4 4 7 6 5 5 6 7 8 9 9 11 12 12 11 11 10 10 9 9 10 10 10 9 8 10 10 10 11 11 12 12 12 11 10 11 10 11 10 10 11 10 9 9 8 8 8 8 7 7 7 8 8 9 6 7 7 7 6 6 5 6 6 6 5 4 4 3 6
16 17 16 16 15 14 14 15 15 13 9 7 8 8 8 8 6 5 5 5 5 6 6 9 10 9 9 7 9 9 9 9 8 9 10 12 12 10 9 8 11 9 11 12 13 14 14 14 13 13 12 11 12 11 11 11 10 10 10 9 9 10 9 9 8 6 7 8 9 9 8 8 7 6 7 7 7 6 6 7 6 6 5 4 4
15 16 16 16 16 16 16 13 11 9 7 6 7 7 6 7 7 7 8 7 7 7 6 9 5 8 8 11 11 9 10 8 7 9 10 10 9 9 10 9 5 10 10 12 12 13 14 14 14 14 14 14 14 13 11 11 11 11 10 10 10 11 11 9 8 8 6 8 9 9 8 8 8 9 8 7 7 7 7 7 6 6 7 6 7
13 13 14 15 15 16 16 17 17 18 17 17 12 8 8 8 7 7 7 7 8 9 6 6 6 7 9 10 8 6 7 7 9 9 10 10 10 10 9 7 11 9 11 12 13 12 13 14 14 14 14 14 14 15 14 13 13 13 12 10 11 12 11 10 9 10 9 8 9 9 9 8 9 9 8 8 8 8 8 7 7 7 7 7 6
13 13 12 12 12 12 12 13 14 16 16 16 15 15 13 13 12 8 7 9 6 8 5 6 7 7 9 7 7 8 6 8 11 11 12 12 11 10 9 12 11 9 9 11 12 13 13 13 13 13 14 14 15 15 14 14 14 15 15 13 12 13 14 13 13 12 12 10 10 10 10 9 7 8 8 7 7 7 7 7 7 6 7 6 6
13 11 11 11 11 12 15 16 15 14 13 14 13 13 13 13 13 11 11 11 8 8 8 7 8 10 10 9 10 9 9 10 12 13 14 14 13 13 12 12 12 11 12 11 11 12 12 14 14 14 14 15 15 14 15 15 16 16 15 15 14 14 13 13 14 13 13 13 13 12 11 11 10 10 9 9 8 7 8 7 7 6 6 6 5
16 16 15 16 17 17 15 14 14 14 13 12 13 13 13 12 12 13 12 11 10 8 8 8 8 11 10 10 12 10 11 12 14 13 15 14 13 12 10 13 11 12 13 12 12 12 13 14 15 16 16 15 16 15 15 15 14 14 15 15 15 15 14 15 15 14 13 14 14 14 13 12 12 12 9 10 9 10 8 7 7 6 6 6 5
17 19 20 19 16 16 18 17 15 14 13 12 11 10 11 11 12 10 11 11 12 10 8 9 8 9 11 11 12 10 13 15 15 15 16 14 12 11 11 10 12 14 12 13 14 13 14 16 16 15 15 15 14 14 16 16 16 15 14 14 15 15 15 15 14 14 14 14 14 14 13 14 14 14 13 10 10 11 8 8 8 8 7 7 7
14 13 14 15 18 18 16 16 16 16 15 14 13 12 11 10 11 12 12 11 10 10 11 11 11 10 11 11 11 12 13 13 15 15 13 11 12 12 12 13 12 13 14 14 14 15 14 16 16 15 15 16 15 15 14 15 15 15 16 16 15 15 15 14 13 14 14 13 13 13 13 14 14 13 12 13 12 11 9 10 10 9 8 8 7
14 15 16 15 14 14 15 15 16 16 16 15 14 14 14 12 12 11 12 12 12 13 12 10 10 11 11 12 11 12 13 14 14 13 12 12 12 12 14 13 12 15 15 16 16 17 14 13 15 15 16 15 15 15 15 15 16 17 16 17 16 16 16 14 13 13 13 13 13 13 13 13 13 12 12 11 13 12 9 10 8 8 8 8 7
14 14 14 13 14 13 14 14 15 16 17 17 15 15 15 16 15 16 14 13 12 12 13 13 11 10 11 12 12 11 11 13 13 13 12 13 13 13 12 12 13 14 13 15 14 14 14 15 14 15 16 15 16 16 15 16 17 17 16 16 17 16 16 15 14 13 13 13 12 11 11 12 12 12 14 12 13 12 11 11 8 8 9 8 7
13 12 10 9 10 10 11 13 15 16 16 17 16 16 15 15 15 15 16 16 14 13 14 14 14 14 12 11 12 12 12 12 12 13 14 13 12 12 11 12 14 14 13 11 11 13 14 15 15 14 14 14 15 13 15 22 19 16 16 13 12 14 15 14 15 14 13 13 13 11 11 16 17 18 17 18 18 17 15 11 11 11 10 9 8
10 12 13 12 12 12 11 12 13 14 14 14 14 15 14 14 15 15 15 15 13 14 15 13 14 14 14 14 12 11 12 13 13 12 11 11 12 11 12 13 12 11 12 12 12 13 15 14 15 15 16 15 14 13 20 25 25 24 17 15 15 14 14 14 14 15 15 14 12 11 10 14 16 16 15 20 19 19 18 16 17 16 13 12 10
8 9 10 12 12 13 14 14 15 15 15 14 14 14 13 15 16 16 16 14 13 13 14 14 13 14 14 14 13 13 12 13 11 12 11 11 10 10 11 11 11 11 11 9 13 16 14 13 12 14 15 15 14 13 22 25 26 26 21 15 14 13 13 14 14 14 13 12 14 13 9 10 11 12 11 13 16 19 19 18 19 19 18 17 14
9 10 9 10 10 10 11 12 13 14 15 17 16 16 15 15 16 15 14 14 15 14 14 14 14 15 15 15 15 13 12 12 12 11 10 8 9 10 11 10 12 10 9 12 15 12 13 13 13 14 15 14 12 16 23 25 25 26 25 18 12 13 14 14 14 14 14 13 10 9 8 7 8 19 13 10 10 13 18 20 19 19 18 18 16
8 8 9 9 9 9 10 11 12 12 12 13 12 12 13 13 13 14 13 13 14 14 13 13 13 14 14 14 15 14 14 13 11 9 8 8 8 11 10 9 8 7 10 11 11 13 12 12 14 14 13 12 12 15 23 25 25 25 25 21 12 13 13 13 14 13 12 15 12 11 10 9 9 12 11 11 10 11 12 12 13 12 11 14 17
9 10 10 9 10 9 11 12 11 12 13 13 13 13 15 14 13 13 12 12 13 13 12 11 13 14 13 14 14 14 14 13 11 10 8 8 9 9 8 8 8 10 12 13 13 13 13 13 13 12 11 12 12 17 23 25 25 25 25 20 11 11 10 10 10 11 11 8 11 10 8 11 13 12 11 14 12 12 10 9 9 8 6 6 5
7 8 9 9 9 10 11 11 10 10 11 11 11 13 14 15 14 13 14 13 12 12 12 11 13 14 14 14 14 14 14 13 12 10 8 9 8 8 9 7 7 8 7 7 8 10 12 13 12 12 12 12 10 19 23 25 26 25 26 15 11 11 10 9 10 8 8 8 7 8 10 12 12 12 17 24 18 11 10 10 10 7 5 4 4
6 6 8 7 7 8 10 9 10 10 11 11 11 12 13 14 14 12 12 12 12 12 12 13 13 14 14 14 13 14 14 13 12 11 10 9 9 9 7 4 6 8 8 10 11 11 10 11 12 13 13 12 9 17 23 24 25 27 20 11 11 10 10 9 7 9 8 8 8 9 9 11 12 12 19 24 23 19 10 11 9 8 6 5 5
7 6 7 7 6 6 8 8 9 10 10 10 11 12 13 13 13 13 13 13 13 12 12 12 14 14 14 14 14 13 14 13 12 11 12 10 8 6 6 5 8 8 9 10 8 8 9 9 12 13 14 12 11 15 24 25 26 28 18 13 12 11 10 10 7 6 6 7 11 19 15 12 13 13 22 24 24 19 12 11 10 9 9 8 7
6 7 9 8 7 7 8 7 8 11 10 9 11 12 12 13 12 12 12 13 13 14 14 14 15 14 12 12 11 12 12 13 12 12 10 10 9 8 6 4 6 6 7 6 6 7 8 8 9 11 11 13 10 14 25 26 28 30 19 12 12 12 12 11 9 7 8 7 9 14 19 14 12 16 25 24 25 19 11 11 11 10 10 10 9
8 7 7 8 8 8 8 8 9 10 9 10 10 11 11 12 14 13 12 13 13 14 15 16 16 14 11 11 10 11 12 12 13 12 10 9 7 5 6 6 6 6 6 5 6 7 9 8 7 9 10 12 11 11 17 26 27 29 24 13 11 13 13 12 12 13 11 9 8 9 15 20 20 22 24 26 25 23 13 11 10 9 10 10 8
9 9 8 7 8 8 10 11 9 9 8 8 8 9 11 11 12 12 14 14 13 13 15 16 16 14 12 12 12 11 13 13 11 12 11 8 6 6 5 5 6 5 4 5 6 7 7 7 6 7 7 9 9 11 15 26 27 29 28 21 13 14 12 13 13 12 12 12 10 11 10 20 23 23 25 26 26 25 19 12 11 8 8 7 8
7 10 9 8 9 10 10 11 10 10 10 9 8 10 12 12 11 12 12 13 14 15 15 15 15 14 14 15 14 14 12 11 11 10 11 10 6 5 5 5 6 5 6 7 6 6 7 6 5 6 7 8 8 14 11 20 27 29 27 25 13 12 13 13 13 12 12 11 10 12 10 19 26 25 24 25 26 25 23 10 12 15 15 16 9
10 10 8 7 9 11 12 13 13 11 10 9 8 11 12 11 13 14 12 12 14 15 16 16 15 14 14 15 16 17 14 10 10 10 10 11 7 5 5 5 5 6 7 7 6 6 6 6 5 5 5 6 7 9 16 14 24 28 28 26 22 15 21 14 14 14 13 8 8 8 11 22 25 24 24 24 23 24 20 12 19 18 18 17 12
8 8 8 6 8 10 12 12 13 12 10 10 9 12 13 15 17 12 11 13 13 15 15 16 15 13 14 14 16 17 16 12 11 10 9 10 9 6 5 5 6 6 6 6 5 5 6 7 7 7 6 7 7 7 12 17 17 28 27 27 25 22 22 13 11 10 9 7 11 12 13 24 25 25 25 23 22 21 13 18 19 21 18 15 8
12 12 9 6 9 11 13 14 15 14 12 9 8 10 14 18 16 10 12 14 15 15 16 13 15 15 18 15 16 15 17 15 12 9 10 9 9 6 7 6 6 6 7 7 7 6 8 8 8 9 8 7 7 8 8 14 20 21 27 26 26 25 24 22 12 8 9 9 13 20 22 24 24 24 23 23 20 20 20 18 19 18 15 5 6
9 11 11 8 9 10 12 15 18 16 14 9 9 8 14 16 13 12 13 14 15 15 14 17 17 16 17 18 18 19 15 17 13 9 9 9 9 8 8 7 7 8 7 8 8 8 8 8 9 8 8 8 8 8 9 10 14 15 18 26 26 26 26 23 15 11 15 18 21 21 23 23 22 20 15 11 8 10 19 19 18 14 6 6 6
13 14 11 11 11 13 14 15 17 18 15 11 11 11 12 12 13 13 14 14 14 15 15 16 16 18 16 17 15 15 14 13 14 9 8 9 8 8 8 8 8 8 9 9 9 9 9 9 10 9 8 9 10 8 8 8 9 10 10 13 18 18 25 23 13 11 14 13 16 17 14 18 13 18 12 12 11 11 10 9 7 5 5 5 6
13 13 10 10 12 14 15 16 16 18 14 13 13 13 12 13 13 13 12 13 16 16 16 16 17 13 14 16 15 19 19 12 13 10 9 9 8 9 9 11 10 10 10 10 10 10 11 11 11 9 9 10 9 10 10 10 11 11 11 10 13 13 14 12 12 12 12 12 12 14 17 12 9 9 9 7 6 6 6 7 6 6 6 5 6
15 14 11 12 12 15 15 15 18 17 15 14 14 13 12 12 12 11 11 14 17 18 18 18 18 12 13 14 13 11 13 13 13 11 10 10 10 10 11 11 11 10 11 12 11 12 11 11 10 10 12 11 5 11 14 12 12 14 13 11 11 11 11 10 14 19 13 11 11 11 9 9 9 10 8 8 7 7 6 6 7 6 5 5 4
14 12 12 14 14 15 16 17 17 15 13 15 14 14 11 11 10 12 12 14 17 17 17 16 14 14 12 13 12 12 11 11 10 11 11 11 13 18 13 11 10 14 20 18 13 11 10 9 10 10 12 19 18 15 14 21 20 21 22 20 15 18 16 15 21 29 17 12 12 12 12 12 10 10 9 9 9 8 8 7 5 6 6 6 5
15 14 16 15 15 15 15 18 18 13 13 14 15 16 15 11 9 10 12 13 13 13 13 15 15 13 15 15 13 12 12 10 10 10 11 12 11 10 21 26 21 15 16 22 23 22 17 16 12 9 9 17 11 12 21 24 24 24 24 24 21 23 24 26 28 19 13 12 12 13 13 12 12 12 12 11 9 10 8 8 6 6 6 6 5
Wind_Direction
263 273 274 258 240 229 227 212 215 209 206 195 195 197 195 195 184 198 191 178 177 176 181 179 181 181 183 193 200 194 190 188 189 194 193 196 188 185 181 181 176 172 170 166 168 162 163 158 159 167 165 170 178 191 182 175 174 167 153 140 133 118 65 16 113 113 115 69 37 59 47 27 38 49 41 31 35 38 48 76 73 66 52 50 40
277 284 273 263 248 236 225 213 191 199 217 198 201 200 198 190 192 196 173 184 187 186 184 185 189 189 186 194 195 185 181 185 196 194 196 193 188 185 180 175 171 173 169 169 166 166 164 168 171 173 171 179 182 169 169 174 169 170 165 108 48 133 137 209 191 127 37 135 134 58 21 15 36 26 28 1 359 18 26 58 67 70 57 47 44
284 270 275 272 251 243 219 219 214 212 207 202 207 196 195 195 201 182 185 184 191 186 181 193 192 192 194 189 183 174 191 199 191 181 171 181 183 179 173 171 170 171 170 173 170 174 173 169 178 171 176 169 167 177 178 184 185 183 187 155 123 52 121 172 117 193 139 132 120 92 24 53 4 348 32 17 356 6 15 39 58 63 53 47 48
285 285 286 284 267 278 262 254 230 224 227 219 206 201 198 202 195 187 187 186 183 187 189 185 177 158 132 113 131 133 163 150 132 137 157 151 176 178 184 176 171 173 174 174 178 178 175 179 170 174 178 177 177 176 183 189 185 193 193 191 149 131 157 109 49 354 137 140 71 110 179 123 72 284 331 299 346 8 32 23 40 57 42 37 40
287 292 289 286 324 266 228 236 228 224 223 217 204 203 201 202 196 189 184 185 185 181 179 162 144 133 114 88 95 87 82 130 140 176 180 174 168 187 191 176 179 177 177 183 180 181 179 177 176 179 176 180 177 182 188 193 190 190 184 177 185 150 172 155 89 43 79 276 140 110 73 77 207 205 74 295 6 36 351 9 61 59 47 43 46
265 274 273 283 308 314 251 246 224 234 233 225 210 209 204 201 189 185 183 182 183 178 171 163 169 164 157 155 163 174 176 177 192 194 178 184 196 188 183 188 183 183 181 181 183 178 182 181 179 176 180 178 184 189 186 178 192 190 196 190 181 195 144 149 128 72 123 66 84 142 161 170 178 212 132 195 317 198 290 131 91 98 72 57 45
262 257 279 290 313 330 278 239 233 237 238 227 217 216 208 194 185 183 183 182 178 175 170 168 170 177 182 185 185 185 190 203 201 185 186 197 187 184 190 184 185 180 180 179 183 183 181 181 182 181 179 180 178 175 186 196 193 197 183 195 190 154 138 139 158 163 112 41 49 65 68 60 126 132 197 98 230 282 333 209 139 342 52 56 46
278 285 283 298 319 286 273 245 238 236 250 217 221 208 197 187 178 182 180 179 178 171 175 177 178 181 185 192 193 198 201 199 185 189 188 178 183 187 180 188 185 184 177 181 183 182 181 181 179 177 177 180 176 189 194 193 188 197 195 201 182 180 167 152 161 168 158 162 91 84 78 71 50 66 104 160 153 158 246 315 54 17 9 18 40
285 295 304 315 310 286 258 259 254 273 270 229 218 203 188 176 174 172 176 173 174 175 178 184 183 183 186 189 197 207 203 180 164 158 175 167 178 171 180 185 187 189 183 180 181 181 181 179 177 177 180 182 184 187 192 186 191 184 184 184 189 195 187 158 148 180 164 156 135 78 85 64 55 52 71 75 130 134 260 267 280 344 4 354 10
298 275 285 308 278 271 274 285 289 274 264 226 186 153 157 155 165 169 176 173 171 177 181 185 187 181 188 195 197 193 173 144 153 166 171 170 181 177 177 175 185 188 188 183 179 184 182 177 180 184 185 180 182 186 180 183 192 196 195 191 186 179 179 170 171 168 169 154 160 149 134 112 70 38 33 102 57 92 168 216 236 346 349 283 320
310 319 306 277 278 284 292 285 291 336 353 130 146 150 153 158 164 173 177 170 172 178 179 186 188 190 196 196 196 189 177 160 160 171 163 169 185 184 184 187 182 191 185 187 186 181 181 181 183 186 181 179 181 179 186 186 191 193 193 190 191 182 175 169 135 151 148 157 161 166 164 169 170 172 182 184 156 146 109 225 280 258 181 305 283
308 314 310 320 327 324 324 313 337 341 7 87 140 145 151 162 160 171 176 177 176 181 184 189 190 196 199 196 196 193 178 178 181 181 181 184 185 184 184 178 191 187 185 187 188 183 182 185 184 180 183 182 188 184 182 183 182 183 183 190 191 192 162 157 150 156 166 167 178 181 178 170 153 154 172 167 171 174 150 154 176 245 296 225 262
314 305 288 317 323 323 330 330 338 342 329 307 228 157 156 160 170 176 189 180 180 181 189 191 195 201 199 198 200 192 189 190 190 187 184 184 182 181 178 189 179 183 194 193 196 186 184 183 184 185 187 190 183 180 184 176 176 180 185 188 188 186 183 174 170 179 172 175 183 181 160 168 170 140 143 153 133 125 136 128 203 167 200 271 271
303 307 307 272 293 315 327 314 295 261 305 320 318 205 185 165 170 191 198 192 186 188 190 192 201 202 200 203 203 197 199 194 195 189 185 187 184 185 185 186 186 195 191 198 191 185 190 192 186 189 188 183 183 183 178 177 174 179 181 186 191 191 173 181 178 168 175 169 148 159 171 168 152 151 147 145 152 139 153 163 148 200 204 236 256
308 299 284 318 330 318 314 310 273 258 148 58 357 318 238 184 177 189 198 211 207 204 197 200 200 200 201 205 205 206 206 202 203 197 186 187 187 186 190 190 195 199 196 196 180 187 190 185 189 188 185 182 179 178 178 176 175 173 180 187 181 176 181 171 171 168 170 165 166 165 156 151 158 159 154 161 161 172 161 165 153 150 193 195 238
296 308 353 358 334 320 313 310 273 140 131 132 181 208 204 207 192 201 200 200 206 210 216 211 209 203 201 200 205 204 207 208 213 209 202 195 190 189 190 192 197 192 193 180 186 182 187 188 185 189 183 181 182 180 176 176 174 174 176 177 183 173 175 178 175 172 172 166 161 147 146 164 160 160 160 156 165 160 153 151 155 146 153 247 177
312 349 345 340 342 338 322 303 300 20 139 174 194 195 206 209 197 203 204 199 204 208 212 212 215 212 212 207 201 201 203 205 206 209 205 201 200 202 197 198 189 186 184 177 175 184 184 185 186 185 183 182 181 182 178 176 173 177 179 177 182 175 175 182 167 175 168 160 157 164 162 158 165 156 153 156 155 151 159 163 175 169 160 131 143
310 315 323 330 340 336 330 308 302 301 247 187 207 209 211 212 211 211 216 212 209 205 208 207 209 215 216 214 212 209 204 203 200 202 201 201 210 207 201 190 194 179 170 178 176 177 181 183 183 184 183 181 183 180 179 176 172 181 180 182 177 164 171 165 173 166 165 161 156 156 156 160 163 163 165 159 158 160 162 174 180 178 153 153 164
358 359 3 5 5 3 358 349 346 346 335 329 324 304 283 266 262 243 241 249 246 236 227 227 219 220 218 218 214 215 214 210 201 189 187 203 209 210 204 196 171 175 173 167 171 177 180 184 183 183 180 183 180 181 177 177 177 178 177 176 168 168 173 176 176 170 168 162 163 165 162 162 164 163 156 159 161 162 169 167 171 159 170 142 148
9 8 6 6 5 7 2 357 353 348 346 345 341 339 331 322 311 297 299 297 281 254 241 235 227 223 224 224 229 225 223 219 212 200 197 202 204 204 206 198 197 177 181 175 179 180 180 181 183 180 179 179 180 181 179 178 178 184 176 175 174 170 176 177 173 175 167 170 165 169 173 168 164 157 161 167 169 171 166 169 171 168 171 158 141
12 12 9 8 9 10 11 11 7 3 3 357 356 340 320 317 307 308 295 283 268 260 254 252 253 247 235 228 223 216 220 214 213 210 211 210 203 203 205 206 173 197 178 182 181 182 182 183 181 183 181 180 180 180 181 178 181 182 181 179 171 177 178 176 166 173 173 170 174 174 174 171 163 166 169 168 173 171 168 169 166 167 169 172 165
15 14 10 10 10 10 11 11 12 13 12 10 0 348 333 319 305 301 296 285 279 272 264 280 278 272 261 254 247 237 224 215 218 216 220 213 206 203 198 186 202 196 185 186 185 182 184 183 184 186 184 183 183 182 180 179 181 182 182 180 178 178 179 174 172 178 177 178 175 175 176 171 175 171 168 176 173 169 170 163 174 172 173 174 177
11 10 9 10 9 7 9 15 16 13 8 5 5 4 357 344 334 321 302 284 275 278 278 266 259 257 256 265 268 254 241 227 220 219 218 213 212 208 193 198 197 190 193 191 189 185 183 183 186 187 186 187 186 185 183 182 185 183 181 182 182 180 180 178 181 184 180 176 176 180 180 171 168 170 178 176 170 172 166 169 172 172 172 172 174
9 12 14 11 8 5 9 10 10 12 10 5 360 359 0 357 347 334 323 305 291 272 267 260 254 250 244 240 238 236 233 232 228 226 224 218 211 205 196 201 198 186 189 192 188 187 182 185 187 187 190 190 188 187 185 187 187 185 184 183 180 184 185 185 184 182 180 180 182 178 182 174 174 175 178 174 176 170 172 171 169 175 171 169 172
10 9 6 8 12 12 10 5 3 1 2 2 2 358 359 359 354 345 333 319 303 290 277 265 255 256 251 245 243 232 231 231 231 231 230 224 217 213 202 203 193 197 194 185 190 185 186 186 189 191 191 192 192 188 185 187 189 189 186 182 182 184 187 187 187 185 182 182 183 187 177 175 175 177 178 180 175 174 171 166 171 169 168 165 156
7 7 8 6 0 1 2 1 359 358 356 355 357 358 356 356 354 349 343 334 325 315 297 284 271 261 259 250 247 240 237 235 233 234 232 225 219 214 208 205 199 198 192 196 191 188 189 191 192 191 191 192 189 190 191 189 187 186 187 186 185 186 188 187 186 185 184 184 185 184 178 177 180 182 184 177 170 172 165 169 168 170 162 160 159
6 4 1 0 4 360 354 353 351 349 351 350 350 351 354 355 352 351 349 343 334 326 314 303 290 277 271 262 253 245 240 240 238 237 235 226 220 214 206 207 202 201 196 195 195 196 197 192 192 188 190 188 190 192 192 191 190 188 188 186 186 188 188 187 188 185 184 185 185 183 179 181 185 187 177 176 171 169 173 175 173 167 163 159 156
1 2 4 360 352 351 351 348 346 346 344 346 347 347 348 350 350 351 347 346 345 342 334 314 294 288 278 272 263 253 248 244 242 239 234 228 221 215 212 207 197 204 203 199 196 197 198 196 192 190 190 186 186 191 193 193 192 191 189 191 188 187 186 187 185 184 184 185 184 183 183 185 185 183 178 174 171 172 166 171 172 163 163 160 162
358 353 353 354 348 345 342 342 342 343 344 344 345 346 347 347 350 348 349 348 343 341 339 337 327 308 293 283 275 266 257 254 249 243 235 228 222 219 214 206 204 208 207 205 199 195 192 197 199 194 188 186 189 192 192 191 191 193 193 191 189 187 185 184 183 184 183 182 183 182 182 183 182 180 178 174 177 170 164 167 172 167 167 162 161
348 343 341 339 336 336 336 338 341 344 343 343 343 344 345 346 345 345 343 342 344 344 344 342 343 337 324 303 284 275 268 259 252 244 239 231 225 219 212 210 210 209 207 201 197 197 198 198 196 198 194 192 196 196 192 191 188 189 189 189 187 189 186 185 181 181 182 184 183 179 178 177 178 177 177 178 180 179 178 169 167 170 168 163 166
339 337 337 338 337 337 338 340 341 340 340 339 337 336 338 341 343 342 342 339 340 340 342 342 341 340 334 325 310 290 278 268 258 250 244 235 226 218 214 214 212 206 205 199 193 197 201 200 199 196 197 201 201 198 189 190 191 187 183 185 186 188 188 185 184 182 183 181 177 170 166 175 174 176 178 182 183 183 181 178 176 176 173 167 166
334 331 331 336 336 338 342 340 339 337 337 340 337 336 338 341 340 340 338 336 338 339 338 337 338 339 340 336 326 310 293 278 268 256 246 236 228 219 217 213 208 205 203 193 200 204 202 199 200 201 203 204 204 194 190 192 191 189 185 185 186 185 185 188 186 185 182 177 157 144 162 172 175 175 172 179 183 184 182 182 181 181 183 183 182
331 330 330 329 329 330 335 335 335 337 338 336 337 336 340 340 335 332 332 334 338 338 336 336 338 340 340 339 334 325 307 290 274 262 255 241 229 224 220 212 210 205 191 200 207 199 203 201 199 203 207 206 207 195 193 192 192 191 186 179 186 186 186 190 184 183 179 174 157 149 152 168 170 176 173 177 177 184 185 184 183 186 193 198 200
320 321 323 321 321 324 330 332 328 330 331 326 331 329 329 330 324 324 329 330 333 332 334 332 335 337 337 337 335 331 320 304 288 274 259 243 232 228 224 216 208 192 201 206 202 204 202 199 202 205 207 206 207 196 194 193 192 190 186 182 187 184 189 189 187 181 164 147 160 155 160 162 169 177 174 177 177 179 179 183 190 196 203 209 210
319 323 322 321 320 322 325 328 330 330 330 330 330 334 330 328 328 325 325 328 328 327 328 331 334 333 335 335 334 331 323 314 301 284 268 252 241 239 228 215 204 202 203 203 201 202 203 201 201 200 203 205 207 195 195 193 191 189 187 180 180 183 184 187 164 152 152 150 160 165 157 166 170 176 174 178 173 176 175 180 183 183 175 181 185
304 306 309 311 317 321 322 320 322 325 324 325 325 330 328 322 324 324 324 326 325 323 324 329 332 333 333 332 330 327 323 317 308 295 279 264 252 239 231 220 210 214 214 210 213 208 205 203 200 196 202 209 202 195 196 193 190 188 184 178 177 178 179 177 177 163 157 159 156 154 162 169 172 174 180 181 180 168 166 173 175 175 176 178 188
285 292 295 296 298 311 314 314 317 320 321 322 329 330 323 320 320 320 321 322 323 323 327 331 328 329 328 327 326 322 320 317 311 300 282 269 260 251 246 224 218 217 210 210 212 207 205 202 199 199 201 204 195 195 195 193 191 188 184 172 171 174 177 175 159 165 153 159 165 165 163 169 171 176 180 180 179 176 168 175 175 175 180 182 199
282 283 286 291 297 300 305 306 311 311 313 322 328 325 319 315 315 318 322 322 324 323 328 328 324 324 323 323 322 321 317 313 308 297 282 273 262 260 248 222 223 221 220 220 210 211 209 204 202 201 200 197 194 193 195 194 191 189 179 167 170 172 172 170 154 146 150 157 175 178 177 171 172 174 180 179 179 174 171 175 172 176 182 192 200
278 286 291 293 294 297 295 300 303 308 314 326 321 318 316 313 315 319 319 319 321 326 329 328 322 318 315 315 316 314 310 305 300 291 279 272 264 254 248 221 230 232 233 222 207 214 213 208 209 204 194 197 193 193 195 193 193 194 181 163 168 174 171 175 166 139 153 155 175 185 182 176 172 174 180 179 178 173 170 176 175 177 188 195 195
285 286 284 291 299 300 297 298 304 302 312 318 317 314 313 315 317 319 319 317 321 325 325 320 314 309 308 309 313 310 305 301 296 291 284 269 265 258 240 226 230 224 228 209 210 214 211 212 201 199 201 199 192 193 199 196 195 195 179 163 169 172 176 171 167 169 161 167 169 175 186 183 177 179 182 183 182 175 173 177 179 185 191 190 178
296 294 298 299 298 297 297 300 299 301 305 307 309 311 310 312 312 313 314 315 318 320 319 316 308 305 311 314 312 310 307 304 296 289 288 280 257 246 236 225 225 224 219 218 212 214 211 213 197 201 199 202 194 190 201 199 197 197 181 166 175 179 172 168 172 172 178 175 173 178 172 186 183 184 185 187 187 185 181 180 187 181 184 173 154
286 295 304 306 306 302 299 296 297 305 309 310 313 308 306 307 307 302 306 314 319 318 316 310 305 311 316 314 312 309 306 301 301 296 290 278 262 237 228 220 217 207 213 219 214 207 209 203 194 192 197 201 192 192 198 205 202 200 188 173 167 182 170 166 173 182 180 182 172 169 168 187 187 186 187 188 188 190 186 172 188 192 194 197 182
293 296 297 310 308 302 301 300 303 306 308 308 310 304 301 303 297 299 312 317 318 315 312 307 305 309 311 312 311 309 305 305 298 293 284 279 269 240 228 206 210 209 214 220 211 207 201 202 195 201 197 197 194 195 200 203 205 204 191 181 176 173 178 175 179 181 183 168 156 159 167 182 188 187 188 189 189 189 187 166 186 193 197 182 133
279 274 286 298 291 289 294 296 297 299 303 306 311 304 303 302 296 311 320 316 314 309 305 303 304 307 308 307 308 306 303 297 291 284 276 272 267 245 230 210 205 208 212 214 215 205 208 207 201 206 204 196 193 188 205 205 208 206 199 186 182 175 178 180 183 184 172 160 163 167 170 183 188 187 186 187 187 188 182 178 185 195 177 132 130
292 293 293 297 289 295 297 295 294 296 295 296 297 297 298 296 300 326 318 315 311 307 305 305 310 310 308 307 305 301 298 293 285 269 265 264 257 234 233 220 200 210 211 213 214 200 212 214 210 210 204 200 194 192 197 207 210 213 206 189 186 176 183 179 178 174 168 166 167 169 173 184 187 184 184 185 187 185 184 189 181 159 126 121 126
284 287 291 290 290 288 289 289 292 291 291 291 288 287 289 289 307 318 314 309 305 306 309 308 305 304 304 304 303 297 293 289 279 260 251 249 248 234 228 223 205 212 207 213 212 206 216 218 220 216 209 199 190 190 201 203 211 213 215 196 188 185 184 184 167 164 163 164 170 173 175 182 187 189 185 173 155 179 177 160 146 127 124 128 138
285 284 296 302 299 295 290 289 289 290 293 294 291 288 283 295 304 311 310 308 307 307 303 299 297 300 301 299 296 295 294 293 284 268 252 248 238 234 228 226 216 212 209 209 212 210 213 217 222 217 199 163 159 197 198 202 203 207 215 198 188 189 184 177 160 160 166 168 170 169 172 178 175 173 149 133 133 136 132 118 102 112 123 136 146
281 285 293 292 286 285 286 288 286 285 292 294 291 291 294 300 304 306 309 310 305 301 301 297 291 290 290 294 292 289 288 285 283 271 260 252 238 227 227 225 215 211 209 212 208 210 212 211 218 212 185 155 187 200 199 195 197 196 203 196 184 180 178 165 160 160 158 160 159 165 170 166 148 126 120 113 118 117 122 126 109 94 118 119 159
288 291 295 285 286 285 282 284 282 286 292 292 287 288 292 298 303 307 311 308 301 300 296 291 289 288 279 280 277 277 279 282 280 273 253 246 242 229 230 237 227 217 212 211 204 215 214 213 210 204 185 182 173 201 206 192 193 196 195 196 178 180 169 159 161 155 148 152 155 156 132 135 140 140 135 138 135 125 117 115 122 119 127 146 148
283 290 286 285 282 281 284 285 283 288 293 291 292 291 290 295 302 303 306 299 296 295 292 287 286 288 286 286 279 272 268 270 273 276 274 262 239 237 233 228 239 219 223 222 215 216 210 201 209 213 193 191 199 205 182 189 195 198 202 201 182 175 165 156 163 160 149 149 155 148 153 153 154 155 158 159 164 162 150 132 133 160 143 157 164
292 294 291 287 286 285 286 284 285 293 289 290 291 290 292 299 301 298 297 287 283 284 285 284 287 285 287 290 286 283 281 278 273 273 274 270 273 247 241 241 239 233 225 227 227 229 223 209 203 212 208 212 207 180 188 193 194 200 201 201 186 177 164 164 164 150 148 158 163 166 169 168 170 169 170 167 159 160 151 135 163 162 156 169 170